Location: Lugrin
(46.4033°N, 6.6674°E)
Time: 11:18:00
(UTC+00:00)

Cosmos 1975 Rocket - Pass Details

Date: 18 September 2020
Orbit: 603 x 634 km, 82.5° (Epoch: 25 October)

Event Time Altitude Azimuth Distance (km) Brightness Sun altitude
Rises 19:05:52 0° 344° (NNW) 2,880 7.0 -15.6°
Reaches altitude 10° 19:08:11 10° 337° (NNW) 1,967 6.2 -16.0°
Maximum altitude 19:12:15 41° 268° (W) 884 4.3 -16.7°
Drops below altitude 10° 19:16:18 10° 198° (SSW) 1,944 5.6 -17.3°
Sets 19:18:34 0° 191° (S) 2,842 6.3 -17.7°
